Location: �clusier
(49.9361°N, 2.7869°E)
Time: 04:23:49
(UTC+00:00)

Cosmos 1943 Rocket - Pass Details

Date: 05 November 2021
Orbit: 811 x 844 km, 71.0° (Epoch: 07 December)

Event Time Altitude Azimuth Distance (km) Brightness Sun altitude
Rises 18:17:53 0° 332° (NNW) 3,414 5.7 -19.4°
Reaches altitude 10° 18:20:26 10° 338° (NNW) 2,473 4.9 -19.8°
Maximum altitude 18:25:57 50° 54° (NE) 1,062 2.4 -20.7°
Enters shadow 18:27:13 42° 93° (E) 1,180 2.4 -20.9°
